TimeEDT,TemperatureF,Dew PointF,Humidity,Sea Level PressureIn,VisibilityMPH,Wind Direction,Wind SpeedMPH,Gust SpeedMPH,PrecipitationIn,Events,Conditions,WindDirDegrees,DateUTC
12:15 AM,64.4,59.0,83,29.92,10.0,South,5.8,-,N/A,,Scattered Clouds,170,2013-03-12 04:15:00
12:35 AM,64.4,59.0,83,29.91,10.0,South,6.9,-,N/A,,Scattered Clouds,170,2013-03-12 04:35:00
1:15 AM,64.4,59.0,83,29.87,10.0,SSE,5.8,-,N/A,,Scattered Clouds,160,2013-03-12 05:15:00
1:35 AM,66.2,59.0,78,29.87,10.0,SSE,5.8,-,N/A,,Scattered Clouds,160,2013-03-12 05:35:00
2:15 AM,66.2,59.0,78,29.88,10.0,SSE,5.8,-,N/A,,Mostly Cloudy,150,2013-03-12 06:15:00
2:35 AM,66.2,60.8,83,29.87,10.0,SSE,4.6,-,N/A,,Overcast,150,2013-03-12 06:35:00
2:55 AM,66.2,60.8,83,29.86,10.0,SSE,4.6,-,N/A,,Overcast,160,2013-03-12 06:55:00
3:15 AM,64.4,62.6,94,29.85,10.0,South,5.8,-,N/A,,Overcast,170,2013-03-12 07:15:00
3:35 AM,64.4,64.4,100,29.86,10.0,South,5.8,-,0.01,,Mostly Cloudy,190,2013-03-12 07:35:00
3:55 AM,64.4,64.4,100,29.85,7.0,South,4.6,-,0.03,,Mostly Cloudy,180,2013-03-12 07:55:00
4:15 AM,64.4,64.4,100,29.85,7.0,South,3.5,-,0.03,,Overcast,190,2013-03-12 08:15:00
4:35 AM,64.4,64.4,100,29.84,7.0,South,6.9,-,0.05,,Mostly Cloudy,190,2013-03-12 08:35:00
4:55 AM,64.4,64.4,100,29.84,7.0,South,6.9,16.1,0.08,,Mostly Cloudy,190,2013-03-12 08:55:00
5:15 AM,64.4,62.6,94,29.84,7.0,South,6.9,-,0.01,,Overcast,190,2013-03-12 09:15:00
5:35 AM,64.4,62.6,94,29.83,10.0,South,6.9,-,0.01,,Mostly Cloudy,180,2013-03-12 09:35:00
6:15 AM,64.4,62.6,94,29.84,7.0,South,4.6,-,0.01,,Mostly Cloudy,190,2013-03-12 10:15:00
6:35 AM,64.4,64.4,100,29.85,7.0,SSW,6.9,-,0.03,,Mostly Cloudy,200,2013-03-12 10:35:00
6:55 AM,64.4,64.4,100,29.84,7.0,South,8.1,-,0.05,,Overcast,190,2013-03-12 10:55:00
7:15 AM,64.4,64.4,100,29.84,7.0,South,6.9,-,N/A,,Mostly Cloudy,190,2013-03-12 11:15:00
7:35 AM,64.4,62.6,94,29.84,7.0,South,5.8,-,N/A,,Mostly Cloudy,190,2013-03-12 11:35:00
7:55 AM,64.4,62.6,94,29.83,10.0,South,5.8,-,N/A,,Mostly Cloudy,180,2013-03-12 11:55:00
8:15 AM,64.4,62.6,94,29.83,10.0,South,4.6,-,N/A,,Mostly Cloudy,190,2013-03-12 12:15:00
8:35 AM,64.4,64.4,100,29.84,7.0,South,3.5,-,N/A,,Overcast,180,2013-03-12 12:35:00
8:55 AM,64.4,64.4,100,29.84,7.0,South,6.9,-,N/A,,Mostly Cloudy,190,2013-03-12 12:55:00
9:15 AM,64.4,64.4,100,29.85,7.0,South,5.8,-,N/A,,Mostly Cloudy,190,2013-03-12 13:15:00
9:35 AM,64.4,64.4,100,29.86,10.0,South,6.9,-,N/A,,Mostly Cloudy,190,2013-03-12 13:35:00
9:55 AM,64.4,64.4,100,29.87,5.0,SSW,15.0,21.9,0.01,,Overcast,210,2013-03-12 13:55:00
10:15 AM,64.4,64.4,100,29.87,4.0,SW,16.1,27.6,0.02,,Overcast,220,2013-03-12 14:15:00
10:35 AM,64.4,64.4,100,29.87,7.0,SSW,13.8,20.7,0.02,,Overcast,210,2013-03-12 14:35:00
10:55 AM,64.4,64.4,100,29.87,10.0,SSW,8.1,20.7,0.02,,Overcast,210,2013-03-12 14:55:00
11:15 AM,64.4,64.4,100,29.87,5.0,SSW,6.9,-,N/A,,Overcast,200,2013-03-12 15:15:00
11:35 AM,64.4,64.4,100,29.87,5.0,SSW,8.1,-,N/A,,Overcast,200,2013-03-12 15:35:00
11:55 AM,64.4,64.4,100,29.87,2.0,SSW,8.1,-,0.01,,Overcast,200,2013-03-12 15:55:00
12:15 PM,64.4,64.4,100,29.87,3.0,SSW,8.1,-,N/A,,Overcast,200,2013-03-12 16:15:00
12:35 PM,64.4,64.4,100,29.87,3.0,SSW,5.8,-,N/A,,Overcast,200,2013-03-12 16:35:00
12:55 PM,64.4,64.4,100,29.87,4.0,SSW,4.6,-,0.01,,Overcast,210,2013-03-12 16:55:00
1:15 PM,64.4,64.4,100,29.87,7.0,SSW,5.8,-,N/A,,Overcast,200,2013-03-12 17:15:00
1:35 PM,68.0,68.0,100,29.85,10.0,SSW,6.9,-,N/A,,Mostly Cloudy,210,2013-03-12 17:35:00
1:55 PM,68.0,66.2,94,29.85,10.0,SW,9.2,-,N/A,,Overcast,220,2013-03-12 17:55:00
2:15 PM,69.8,66.2,88,29.83,10.0,SSW,5.8,-,N/A,,Scattered Clouds,210,2013-03-12 18:15:00
2:35 PM,71.6,62.6,73,29.83,10.0,SW,6.9,-,N/A,,Mostly Cloudy,230,2013-03-12 18:35:00
2:55 PM,71.6,60.8,69,29.82,10.0,SW,10.4,-,N/A,,Mostly Cloudy,230,2013-03-12 18:55:00
3:15 PM,71.6,59.0,64,29.80,10.0,SW,11.5,-,N/A,,Mostly Cloudy,220,2013-03-12 19:15:00
3:35 PM,71.6,59.0,64,29.80,10.0,WSW,9.2,-,N/A,,Scattered Clouds,250,2013-03-12 19:35:00
3:55 PM,73.4,57.2,57,29.80,10.0,West,9.2,-,N/A,,Scattered Clouds,260,2013-03-12 19:55:00
4:15 PM,73.4,55.4,53,29.80,10.0,West,9.2,16.1,N/A,,Scattered Clouds,260,2013-03-12 20:15:00
4:35 PM,73.4,51.8,47,29.81,10.0,West,8.1,-,N/A,,Clear,260,2013-03-12 20:35:00
4:55 PM,73.4,50.0,44,29.81,10.0,WSW,10.4,21.9,N/A,,Clear,250,2013-03-12 20:55:00
5:15 PM,73.4,48.2,41,29.81,10.0,WSW,10.4,-,N/A,,Clear,250,2013-03-12 21:15:00
5:35 PM,73.4,48.2,41,29.81,10.0,West,8.1,-,N/A,,Clear,260,2013-03-12 21:35:00
5:55 PM,73.4,46.4,38,29.82,10.0,SW,6.9,-,N/A,,Clear,230,2013-03-12 21:55:00
6:15 PM,73.4,44.6,36,29.82,10.0,West,4.6,-,N/A,,Clear,270,2013-03-12 22:15:00
6:35 PM,73.4,44.6,36,29.83,10.0,West,5.8,-,N/A,,Clear,270,2013-03-12 22:35:00
6:55 PM,71.6,44.6,38,29.83,10.0,WSW,5.8,-,N/A,,Clear,250,2013-03-12 22:55:00
7:15 PM,69.8,46.4,43,29.85,10.0,West,6.9,-,N/A,,Clear,280,2013-03-12 23:15:00
7:35 PM,68.0,46.4,46,29.87,10.0,NW,5.8,-,N/A,,Clear,310,2013-03-12 23:35:00
7:55 PM,66.2,46.4,49,29.88,10.0,NW,4.6,-,N/A,,Clear,310,2013-03-12 23:55:00
8:15 PM,64.4,44.6,49,29.88,10.0,WNW,4.6,-,N/A,,Clear,300,2013-03-13 00:15:00
8:35 PM,62.6,44.6,52,29.89,10.0,WNW,4.6,-,N/A,,Clear,300,2013-03-13 00:35:00
8:55 PM,62.6,44.6,52,29.90,10.0,WNW,4.6,-,N/A,,Clear,300,2013-03-13 00:55:00
9:15 PM,62.6,44.6,52,29.91,10.0,WNW,3.5,-,N/A,,Clear,300,2013-03-13 01:15:00
9:35 PM,62.6,46.4,55,29.92,10.0,WNW,4.6,-,N/A,,Clear,300,2013-03-13 01:35:00
10:15 PM,59.0,46.4,63,29.92,10.0,Calm,Calm,-,N/A,,Clear,0,2013-03-13 02:15:00
10:35 PM,53.6,46.4,77,29.93,10.0,Calm,Calm,-,N/A,,Clear,0,2013-03-13 02:35:00
10:55 PM,53.6,46.4,77,29.94,10.0,Calm,Calm,-,N/A,,Clear,0,2013-03-13 02:55:00
11:35 PM,51.8,41.0,67,29.95,10.0,West,3.5,-,N/A,,Clear,270,2013-03-13 03:35:00
11:55 PM,57.2,30.2,36,29.95,10.0,WNW,3.5,-,N/A,,Clear,290,2013-03-13 03:55:00